Regional Weather Roundup
Issued by NWS

Home | Current Version | Previous Version | Text Only | Print | Product List | Glossary Off
Versions: 1 2 3 4 5 6 7 8 9 10 11 12 13 14 15 16 17 18 19 20 21 22 23 24 25 26 27 28 29 30 31 32 33 34 35 36 37 38 39 40 41 42 43 44 45 46 47 48 49 50

000
ASUS43 KLSX 160759
RWRMO

WEATHER SUMMARY FOR MISSOURI
NATIONAL WEATHER SERVICE SPRINGFIELD MO
300 AM CDT TUE SEP 16 2014

NOTE: "FAIR" INDICATES FEW OR NO CLOUDS BELOW 12,000 FEET WITH NO
       SIGNIFICANT WEATHER AND/OR OBSTRUCTIONS TO VISIBILITY.
       CURRENT SKY AND/OR WEATHER CONDITIONS ARE NOT AVAILABLE FOR
       CHILLICOTHE AND FARMINGTON.

MOZ001>031-035>038-043-044-053-054-160900-
...NORTHERN AND WESTERN MISSOURI...

CITY           SKY/WX    TMP DP  RH WIND       PRES   REMARKS
KANSAS CTY INT CLEAR     48  47  96 NE5       30.26R
KANSAS C DTWN  CLEAR     52  48  86 NE5       30.26R
LEE`S SUMMIT   CLEAR     50  49  96 CALM      30.25S
ST JOSEPH      CLEAR     46  45  96 N5        30.27S
KIRKSVILLE     CLEAR     48  47  96 CALM      30.25S

$$
MOZ066>068-077>081-088>096-101>105-160900-
...SOUTHWEST MISSOURI...

CITY           SKY/WX    TMP DP  RH WIND       PRES   REMARKS
SPRINGFIELD    CLOUDY    65  58  78 NE8       30.18R
JOPLIN         CLOUDY    64  60  87 N7        30.19S

$$
MOZ032>034-039>042-045>050-055>058-069>072-160900-
...CENTRAL MISSOURI...

CITY           SKY/WX    TMP DP  RH WIND       PRES   REMARKS
COLUMBIA       CLOUDY    58  55  90 N9        30.22R
JEFFERSON CITY CLOUDY    61  56  83 CALM      30.21S
ROLLA          CLOUDY    60  57  89 NE6       30.18S
SEDALIA        CLOUDY    58  53  84 N6        30.23S
OSAGE BEACH    CLOUDY    59  55  88 N5        30.20S

$$
MOZ051-052-059>065-160900-
...EAST CENTRAL MISSOURI...

CITY           SKY/WX    TMP DP  RH WIND       PRES   REMARKS
ST LOUIS INTL  MOCLDY    59  55  87 N5        30.20S
SPIRIT OF STL  CLOUDY    59  55  87 NE8       30.18S
ST CHARLES     CLOUDY    58  56  93 NE3       30.19S

$$
MOZ072>076-082>087-097>100-106>115-160900-
...SOUTH CENTRAL AND SOUTHEAST MISSOURI...

CITY           SKY/WX    TMP DP  RH WIND       PRES   REMARKS
CAPE GIRARDEAU CLOUDY    64  61  90 N12       30.13R
FARMINGTON     CLOUDY    61  57  88 N5        30.19S
POPLAR BLUFF   CLOUDY    68  63  84 NE5       30.11S
WEST PLAINS    CLOUDY    64  62  93 N7        30.17S

$$



USA.gov is the U.S. government's official web portal to all federal, state and local government web resources and services.